User: anonymous   Login
Location: Argonnex
(45.9500°N, 6.1333°E)
Time: 21:31:06
(UTC+00:00)
Language:

CZ-6A DEB - Orbit

View from above orbital plane
View from above orbital plane
View from above satellite
View from above satellite

Ground track
Ground track

The orbit data is extracted from the following two-line orbital elements,

1 54345U 22151CQ  24057.49627834  .00010137  00000-0  40337-2 0  9994
2 54345  98.7016  67.4895 0072209  50.9247 309.8328 14.27393117 66542
Epoch (UTC): 26 February 2024 11:54:38
Eccentricity: 0.0072209
inclination: 98.7016°
perigee height: 748 km
apogee height: 852 km
right ascension of ascending node: 67.4895°
argument of perigee: 50.9247°
revolutions per day: 14.27393117
mean anomaly at epoch: 309.8328°
orbit number at epoch: 6654

The dashed part of the orbit path shows where the satellite is in the earth's shadow,  

DLR